Time,TemperatureF,DewpointF,PressureIn,WindDirection,WindDirectionDegrees,WindSpeedMPH,WindSpeedGustMPH,Humidity,HourlyPrecipIn,Conditions,Clouds,dailyrainin,SoftwareType,DateUTC
2013-11-17 00:00:00,55.0,51.5,29.78,SSE,157,7.4,7.4,88,0.00,,,0.00,WUHU21623XXSP,2013-11-17 05:00:00,
2013-11-17 00:01:00,55.0,51.5,29.78,SSE,157,7.4,7.4,88,0.00,,,0.00,WUHU21623XXSP,2013-11-17 05:01:00,
2013-11-17 00:06:00,55.0,51.8,29.79,SSE,157,1.6,7.4,89,0.00,,,0.00,WUHU21623XXSP,2013-11-17 05:06:00,
2013-11-17 00:11:00,54.9,51.7,29.78,SSE,157,1.6,7.4,89,0.00,,,0.00,WUHU21623XXSP,2013-11-17 05:11:00,
2013-11-17 00:16:00,54.7,51.5,29.78,South,180,4.9,4.9,89,0.00,,,0.00,WUHU21623XXSP,2013-11-17 05:16:00,
2013-11-17 00:21:00,54.7,51.8,29.78,South,180,0.0,4.9,90,0.00,,,0.00,WUHU21623XXSP,2013-11-17 05:21:00,
2013-11-17 00:26:00,54.5,51.6,29.77,SSE,157,0.0,1.6,90,0.00,,,0.00,WUHU21623XXSP,2013-11-17 05:26:00,
2013-11-17 00:31:00,54.5,51.6,29.77,SSE,157,0.9,1.6,90,0.00,,,0.00,WUHU21623XXSP,2013-11-17 05:31:00,
2013-11-17 00:36:00,54.3,51.4,29.76,South,180,0.0,0.9,90,0.00,,,0.00,WUHU21623XXSP,2013-11-17 05:36:00,
2013-11-17 00:41:00,54.3,51.7,29.76,SSE,157,4.5,4.5,91,0.00,,,0.00,WUHU21623XXSP,2013-11-17 05:41:00,
2013-11-17 00:46:00,54.3,51.7,29.76,SSE,157,4.5,4.5,91,0.00,,,0.00,WUHU21623XXSP,2013-11-17 05:46:00,
2013-11-17 00:51:00,54.3,51.7,29.75,SSE,157,0.0,5.8,91,0.00,,,0.00,WUHU21623XXSP,2013-11-17 05:51:00,
2013-11-17 00:56:00,54.3,51.9,29.75,SSE,157,0.0,5.8,91,0.00,,,0.00,WUHU21623XXSP,2013-11-17 05:56:00,
2013-11-17 01:01:00,54.5,51.9,29.75,SSE,157,1.1,1.1,91,0.00,,,0.00,WUHU21623XXSP,2013-11-17 06:01:00,
2013-11-17 01:06:00,54.5,52.2,29.75,SSE,157,0.0,1.1,92,0.00,,,0.00,WUHU21623XXSP,2013-11-17 06:06:00,
2013-11-17 01:11:00,54.5,52.2,29.74,South,180,2.7,2.7,92,0.00,,,0.00,WUHU21623XXSP,2013-11-17 06:11:00,
2013-11-17 01:16:00,54.7,52.4,29.74,SSE,157,0.0,2.7,92,0.00,,,0.00,WUHU21623XXSP,2013-11-17 06:16:00,
2013-11-17 01:21:00,54.7,52.4,29.75,South,180,2.9,6.3,92,0.00,,,0.00,WUHU21623XXSP,2013-11-17 06:21:00,
2013-11-17 01:26:00,54.9,52.6,29.74,SSE,157,6.0,6.3,92,0.00,,,0.00,WUHU21623XXSP,2013-11-17 06:26:00,
2013-11-17 01:31:00,54.9,52.6,29.73,SSE,157,0.0,6.0,92,0.00,,,0.00,WUHU21623XXSP,2013-11-17 06:31:00,
2013-11-17 01:36:00,55.0,52.7,29.73,South,180,4.7,8.5,92,0.00,,,0.00,WUHU21623XXSP,2013-11-17 06:36:00,
2013-11-17 01:41:00,55.0,52.7,29.73,SSE,157,0.0,8.5,92,0.00,,,0.00,WUHU21623XXSP,2013-11-17 06:41:00,
2013-11-17 01:46:00,55.0,52.7,29.72,SSE,157,4.3,4.7,92,0.00,,,0.00,WUHU21623XXSP,2013-11-17 06:46:00,
2013-11-17 01:51:00,55.0,52.7,29.72,SSE,157,2.0,4.3,92,0.00,,,0.00,WUHU21623XXSP,2013-11-17 06:51:00,
2013-11-17 01:56:00,55.2,52.9,29.71,SSW,202,0.0,4.3,92,0.00,,,0.00,WUHU21623XXSP,2013-11-17 06:56:00,
2013-11-17 02:01:00,55.2,52.9,29.71,SSW,202,0.0,0.0,92,0.00,,,0.00,WUHU21623XXSP,2013-11-17 07:01:00,
2013-11-17 02:06:00,55.4,53.1,29.72,South,180,8.1,8.1,92,0.00,,,0.00,WUHU21623XXSP,2013-11-17 07:06:00,
2013-11-17 02:11:00,55.6,53.3,29.72,SSE,157,8.9,8.9,92,0.00,,,0.00,WUHU21623XXSP,2013-11-17 07:11:00,
2013-11-17 02:16:00,55.6,53.3,29.72,SSE,157,6.9,8.9,92,0.00,,,0.00,WUHU21623XXSP,2013-11-17 07:16:00,
2013-11-17 02:21:00,55.6,53.0,29.70,SSE,157,8.5,8.9,91,0.00,,,0.00,WUHU21623XXSP,2013-11-17 07:21:00,
2013-11-17 02:26:00,55.8,53.2,29.71,South,180,5.8,8.5,91,0.00,,,0.00,WUHU21623XXSP,2013-11-17 07:26:00,
2013-11-17 02:31:00,55.9,53.2,29.71,SSE,157,4.5,5.8,91,0.00,,,0.00,WUHU21623XXSP,2013-11-17 07:31:00,
2013-11-17 02:36:00,55.9,53.3,29.72,SSW,202,7.6,7.6,91,0.00,,,0.00,WUHU21623XXSP,2013-11-17 07:36:00,
2013-11-17 02:41:00,55.9,53.3,29.71,South,180,6.7,7.6,91,0.00,,,0.00,WUHU21623XXSP,2013-11-17 07:41:00,
2013-11-17 02:46:00,56.1,53.5,29.71,SSE,157,6.0,7.2,91,0.00,,,0.00,WUHU21623XXSP,2013-11-17 07:46:00,
2013-11-17 02:51:00,56.1,53.5,29.71,South,180,7.6,8.5,91,0.00,,,0.00,WUHU21623XXSP,2013-11-17 07:51:00,
2013-11-17 02:56:00,56.1,53.5,29.71,SSW,202,2.0,8.5,91,0.00,,,0.00,WUHU21623XXSP,2013-11-17 07:56:00,
2013-11-17 03:01:00,56.1,53.5,29.71,SSE,157,4.5,5.1,91,0.00,,,0.00,WUHU21623XXSP,2013-11-17 08:01:00,
2013-11-17 03:06:00,56.1,53.8,29.70,SSE,157,7.4,7.4,92,0.00,,,0.00,WUHU21623XXSP,2013-11-17 08:06:00,
2013-11-17 03:11:00,56.1,53.8,29.70,South,180,8.7,8.7,92,0.00,,,0.00,WUHU21623XXSP,2013-11-17 08:11:00,
2013-11-17 03:16:00,56.3,53.8,29.70,South,180,8.7,8.7,92,0.00,,,0.00,WUHU21623XXSP,2013-11-17 08:16:00,
2013-11-17 03:21:00,56.3,54.0,29.70,South,180,8.7,8.7,92,0.00,,,0.00,WUHU21623XXSP,2013-11-17 08:21:00,
2013-11-17 03:26:00,56.3,54.0,29.70,SSE,157,3.8,8.7,92,0.00,,,0.00,WUHU21623XXSP,2013-11-17 08:26:00,
2013-11-17 03:31:00,56.3,54.0,29.70,SSE,157,6.5,6.5,92,0.00,,,0.00,WUHU21623XXSP,2013-11-17 08:31:00,
2013-11-17 03:36:00,56.3,54.0,29.70,SSE,157,1.3,7.8,92,0.00,,,0.00,WUHU21623XXSP,2013-11-17 08:36:00,
2013-11-17 03:41:00,56.3,54.0,29.71,South,180,6.9,7.8,92,0.00,,,0.00,WUHU21623XXSP,2013-11-17 08:41:00,
2013-11-17 03:46:00,56.3,54.0,29.71,SSE,157,7.4,7.4,92,0.00,,,0.00,WUHU21623XXSP,2013-11-17 08:46:00,
2013-11-17 03:51:00,56.3,54.0,29.71,South,180,3.4,7.4,92,0.00,,,0.00,WUHU21623XXSP,2013-11-17 08:51:00,
2013-11-17 03:56:00,56.1,54.0,29.71,SSE,157,0.0,6.3,92,0.00,,,0.00,WUHU21623XXSP,2013-11-17 08:56:00,
2013-11-17 04:01:00,56.1,54.1,29.70,SSE,157,0.0,0.0,93,0.00,,,0.00,WUHU21623XXSP,2013-11-17 09:01:00,
2013-11-17 04:06:00,56.1,54.1,29.70,SSE,157,0.0,8.1,93,0.00,,,0.00,WUHU21623XXSP,2013-11-17 09:06:00,
2013-11-17 04:11:00,56.1,54.1,29.70,South,180,5.6,8.1,93,0.00,,,0.00,WUHU21623XXSP,2013-11-17 09:11:00,
2013-11-17 04:16:00,56.1,54.1,29.70,SSW,202,0.2,5.6,93,0.00,,,0.00,WUHU21623XXSP,2013-11-17 09:16:00,
2013-11-17 04:21:00,56.1,54.1,29.70,SSE,157,0.4,5.6,93,0.00,,,0.00,WUHU21623XXSP,2013-11-17 09:21:00,
2013-11-17 04:26:00,56.1,54.1,29.70,South,180,1.6,3.6,93,0.00,,,0.00,WUHU21623XXSP,2013-11-17 09:26:00,
2013-11-17 04:31:00,56.1,54.1,29.69,SSE,157,0.0,3.6,93,0.00,,,0.00,WUHU21623XXSP,2013-11-17 09:31:00,
2013-11-17 04:36:00,56.1,54.1,29.69,SSE,157,6.0,6.0,93,0.00,,,0.00,WUHU21623XXSP,2013-11-17 09:36:00,
2013-11-17 04:41:00,56.1,54.1,29.69,SSE,157,4.5,6.0,93,0.00,,,0.00,WUHU21623XXSP,2013-11-17 09:41:00,
2013-11-17 04:46:00,56.1,54.1,29.69,SSE,157,2.9,5.6,93,0.00,,,0.00,WUHU21623XXSP,2013-11-17 09:46:00,
2013-11-17 04:51:00,56.1,54.1,29.69,SSE,157,0.0,3.1,93,0.00,,,0.00,WUHU21623XXSP,2013-11-17 09:51:00,
2013-11-17 04:56:00,56.1,54.1,29.69,SSE,157,6.3,6.3,93,0.00,,,0.00,WUHU21623XXSP,2013-11-17 09:56:00,
2013-11-17 05:01:00,56.1,54.1,29.69,South,180,3.4,6.3,93,0.00,,,0.00,WUHU21623XXSP,2013-11-17 10:01:00,
2013-11-17 05:06:00,56.1,54.1,29.69,South,180,0.0,3.4,93,0.00,,,0.00,WUHU21623XXSP,2013-11-17 10:06:00,
2013-11-17 05:11:00,56.1,54.1,29.69,SSE,157,0.0,0.0,93,0.00,,,0.00,WUHU21623XXSP,2013-11-17 10:11:00,
2013-11-17 05:14:00,56.1,54.1,29.69,SSE,157,0.0,0.0,93,0.00,,,0.00,WUHU21623XXSP,2013-11-17 10:14:00,
2013-11-17 05:50:00,56.1,54.1,29.68,SSE,158,0.0,0.0,93,0.00,,,0.00,WUHU21623XXSP,2013-11-17 10:50:00,
2013-11-17 06:00:00,56.1,54.4,29.68,SSE,157,0.0,0.0,94,0.00,,,0.00,WUHU21623XXSP,2013-11-17 11:00:00,
2013-11-17 06:05:00,56.1,54.4,29.67,SSE,157,0.0,0.0,94,0.00,,,0.00,WUHU21623XXSP,2013-11-17 11:05:00,
2013-11-17 06:10:00,56.1,54.4,29.67,South,180,1.1,4.3,94,0.00,,,0.00,WUHU21623XXSP,2013-11-17 11:10:00,
2013-11-17 06:14:00,56.1,54.4,29.67,SSW,202,0.0,4.3,94,0.00,,,0.00,WUHU21623XXSP,2013-11-17 11:14:00,
2013-11-17 06:50:00,56.5,54.8,29.67,SSE,158,5.1,5.1,94,0.00,,,0.00,WUHU21623XXSP,2013-11-17 11:50:00,
2013-11-17 07:00:00,56.8,55.1,29.67,South,180,0.0,0.0,94,0.00,,,0.00,WUHU21623XXSP,2013-11-17 12:00:00,
2013-11-17 07:05:00,56.8,55.1,29.66,SSE,157,7.8,7.8,94,0.00,,,0.00,WUHU21623XXSP,2013-11-17 12:05:00,
2013-11-17 07:10:00,56.8,55.1,29.66,South,180,8.3,8.3,94,0.00,,,0.00,WUHU21623XXSP,2013-11-17 12:10:00,
2013-11-17 07:14:00,56.8,55.4,29.67,SSW,202,2.7,8.3,95,0.00,,,0.00,WUHU21623XXSP,2013-11-17 12:14:00,
2013-11-17 07:50:00,57.0,55.3,29.66,SW,225,5.8,5.8,94,0.00,,,0.00,WUHU21623XXSP,2013-11-17 12:50:00,
2013-11-17 08:00:00,57.0,55.3,29.67,South,180,0.0,0.0,94,0.00,,,0.00,WUHU21623XXSP,2013-11-17 13:00:00,
2013-11-17 08:05:00,57.4,55.7,29.67,SSW,202,2.7,3.6,94,0.00,,,0.00,WUHU21623XXSP,2013-11-17 13:05:00,
2013-11-17 08:10:00,57.4,55.7,29.66,South,180,2.9,3.8,94,0.00,,,0.00,WUHU21623XXSP,2013-11-17 13:10:00,
2013-11-17 08:14:00,57.4,55.7,29.65,SSE,157,8.5,8.5,94,0.00,,,0.00,WUHU21623XXSP,2013-11-17 13:14:00,
2013-11-17 08:50:00,57.9,55.8,29.64,SSE,158,8.3,8.3,93,0.00,,,0.00,WUHU21623XXSP,2013-11-17 13:50:00,
2013-11-17 09:00:00,57.9,55.6,29.65,SSW,202,6.3,6.3,92,0.00,,,0.00,WUHU21623XXSP,2013-11-17 14:00:00,
2013-11-17 09:05:00,57.9,55.6,29.64,SSE,157,8.1,8.1,92,0.00,,,0.00,WUHU21623XXSP,2013-11-17 14:05:00,
2013-11-17 09:10:00,57.9,55.6,29.64,South,180,4.5,8.1,92,0.00,,,0.00,WUHU21623XXSP,2013-11-17 14:10:00,
2013-11-17 09:14:00,58.1,55.8,29.64,SSE,157,6.0,6.0,92,0.00,,,0.00,WUHU21623XXSP,2013-11-17 14:14:00,
2013-11-17 09:50:00,59.5,56.5,29.62,South,180,7.8,7.8,90,0.00,,,0.00,WUHU21623XXSP,2013-11-17 14:50:00,
2013-11-17 10:00:00,59.5,56.3,29.62,SSE,157,6.5,6.5,89,0.00,,,0.00,WUHU21623XXSP,2013-11-17 15:00:00,
2013-11-17 10:05:00,59.5,56.3,29.62,SSE,157,6.0,6.5,88,0.00,,,0.00,WUHU21623XXSP,2013-11-17 15:05:00,
2013-11-17 10:10:00,59.2,55.7,29.62,SSE,157,2.9,10.1,88,0.00,,,0.00,WUHU21623XXSP,2013-11-17 15:10:00,
2013-11-17 10:14:00,59.0,55.5,29.62,South,180,3.6,10.1,88,0.00,,,0.00,WUHU21623XXSP,2013-11-17 15:14:00,
2013-11-17 10:50:00,58.8,55.5,29.62,SSE,158,5.4,5.4,89,0.00,,,0.00,WUHU21623XXSP,2013-11-17 15:50:00,
2013-11-17 11:00:00,58.8,55.6,29.61,SSE,157,8.3,8.3,89,0.00,,,0.00,WUHU21623XXSP,2013-11-17 16:00:00,
2013-11-17 11:05:00,59.0,55.8,29.60,South,180,5.6,8.3,89,0.00,,,0.00,WUHU21623XXSP,2013-11-17 16:05:00,
2013-11-17 11:10:00,58.8,55.6,29.60,South,180,7.6,7.6,89,0.00,,,0.00,WUHU21623XXSP,2013-11-17 16:10:00,
2013-11-17 11:14:00,59.2,55.8,29.60,South,180,7.4,7.6,89,0.00,,,0.00,WUHU21623XXSP,2013-11-17 16:14:00,
2013-11-17 11:50:00,59.4,56.1,29.57,South,180,3.1,3.1,89,0.00,,,0.00,WUHU21623XXSP,2013-11-17 16:50:00,
2013-11-17 12:00:00,59.2,56.3,29.57,SSE,157,0.0,0.0,90,0.00,,,0.00,WUHU21623XXSP,2013-11-17 17:00:00,
2013-11-17 12:05:00,59.2,56.3,29.56,SSE,157,0.0,0.0,90,0.00,,,0.00,WUHU21623XXSP,2013-11-17 17:05:00,
2013-11-17 12:10:00,58.8,56.2,29.55,South,180,7.6,8.1,91,0.00,,,0.00,WUHU21623XXSP,2013-11-17 17:10:00,
2013-11-17 12:15:00,58.8,56.2,29.55,South,180,8.5,8.5,91,0.00,,,0.00,WUHU21623XXSP,2013-11-17 17:15:00,
2013-11-17 12:20:00,58.8,56.5,29.54,SSE,157,3.6,8.5,92,0.00,,,0.00,WUHU21623XXSP,2013-11-17 17:20:00,
2013-11-17 12:25:00,58.8,56.5,29.54,South,180,5.6,6.5,92,0.00,,,0.00,WUHU21623XXSP,2013-11-17 17:25:00,
2013-11-17 12:30:00,58.8,56.5,29.53,South,180,0.0,5.6,92,0.00,,,0.00,WUHU21623XXSP,2013-11-17 17:30:00,
2013-11-17 12:35:00,58.8,56.5,29.52,SSE,157,5.8,5.8,92,0.00,,,0.00,WUHU21623XXSP,2013-11-17 17:35:00,
2013-11-17 12:40:00,59.2,56.9,29.52,SSE,157,0.0,22.1,92,0.00,,,0.00,WUHU21623XXSP,2013-11-17 17:40:00,
2013-11-17 12:45:00,59.2,56.9,29.51,SSE,157,2.2,22.1,92,0.00,,,0.00,WUHU21623XXSP,2013-11-17 17:45:00,
2013-11-17 12:50:00,59.4,57.1,29.51,SSE,157,8.7,8.7,92,0.00,,,0.00,WUHU21623XXSP,2013-11-17 17:50:00,
2013-11-17 12:55:00,59.4,57.1,29.50,South,180,2.0,8.7,92,0.00,,,0.00,WUHU21623XXSP,2013-11-17 17:55:00,
2013-11-17 13:00:00,59.4,57.1,29.49,South,180,3.6,7.6,92,0.00,,,0.00,WUHU21623XXSP,2013-11-17 18:00:00,
2013-11-17 13:05:00,59.4,57.1,29.50,SSE,157,3.8,7.4,92,0.00,,,0.00,WUHU21623XXSP,2013-11-17 18:05:00,
2013-11-17 13:10:00,59.5,57.1,29.49,SSE,157,6.5,7.4,92,0.00,,,0.00,WUHU21623XXSP,2013-11-17 18:10:00,
2013-11-17 13:14:00,59.5,57.2,29.49,SSE,157,10.1,10.1,92,0.00,,,0.00,WUHU21623XXSP,2013-11-17 18:14:00,
2013-11-17 13:50:00,60.6,57.9,29.44,SSE,158,6.9,6.9,91,0.00,,,0.00,WUHU21623XXSP,2013-11-17 18:50:00,
2013-11-17 14:00:00,60.6,57.7,29.44,South,180,4.3,4.3,90,0.00,,,0.00,WUHU21623XXSP,2013-11-17 19:00:00,
2013-11-17 14:05:00,60.6,57.7,29.44,SSE,157,8.1,8.1,90,0.00,,,0.00,WUHU21623XXSP,2013-11-17 19:05:00,
2013-11-17 14:10:00,60.8,58.4,29.43,SW,225,4.9,8.1,90,0.00,,,0.00,WUHU21623XXSP,2013-11-17 19:10:00,
2013-11-17 14:14:00,60.8,57.7,29.43,SSE,157,3.4,8.3,90,0.00,,,0.00,WUHU21623XXSP,2013-11-17 19:14:00,
2013-11-17 14:50:00,61.0,57.7,29.39,SSE,158,7.4,7.4,89,0.00,,,0.00,WUHU21623XXSP,2013-11-17 19:50:00,
2013-11-17 15:00:00,61.2,57.9,29.39,SSE,157,11.0,11.0,89,0.00,,,0.00,WUHU21623XXSP,2013-11-17 20:00:00,
2013-11-17 15:05:00,61.2,57.9,29.39,SSE,157,6.3,11.2,89,0.00,,,0.00,WUHU21623XXSP,2013-11-17 20:05:00,
2013-11-17 15:10:00,61.3,58.1,29.39,SSE,157,6.0,11.4,89,0.00,,,0.00,WUHU21623XXSP,2013-11-17 20:10:00,
2013-11-17 15:14:00,61.3,58.1,29.38,South,180,9.4,11.4,89,0.00,,,0.00,WUHU21623XXSP,2013-11-17 20:14:00,
2013-11-17 15:50:00,61.3,58.0,29.34,South,180,8.3,8.3,89,0.00,,,0.00,WUHU21623XXSP,2013-11-17 20:50:00,
2013-11-17 16:00:00,61.5,58.3,29.33,South,180,8.5,8.5,89,0.00,,,0.00,WUHU21623XXSP,2013-11-17 21:00:00,
2013-11-17 16:05:00,61.3,58.1,29.32,NNE,22,5.4,8.5,89,0.00,,,0.00,WUHU21623XXSP,2013-11-17 21:05:00,
2013-11-17 16:10:00,61.3,58.1,29.31,SSE,157,4.3,8.5,89,0.00,,,0.00,WUHU21623XXSP,2013-11-17 21:10:00,
2013-11-17 16:14:00,61.3,58.1,29.30,South,180,8.1,8.5,89,0.00,,,0.00,WUHU21623XXSP,2013-11-17 21:14:00,
2013-11-17 16:50:00,59.9,57.5,29.26,SSE,158,4.7,4.7,92,0.00,,,0.00,WUHU21623XXSP,2013-11-17 21:50:00,
2013-11-17 17:00:00,59.9,57.9,29.26,South,180,8.5,8.5,93,0.00,,,0.00,WUHU21623XXSP,2013-11-17 22:00:00,
2013-11-17 17:05:00,59.9,57.9,29.26,SSE,157,6.3,8.5,93,0.00,,,0.00,WUHU21623XXSP,2013-11-17 22:05:00,
2013-11-17 17:10:00,59.9,57.9,29.26,SSE,157,10.7,10.7,93,0.00,,,0.00,WUHU21623XXSP,2013-11-17 22:10:00,
2013-11-17 17:14:00,59.9,58.2,29.27,SSE,157,6.0,10.7,94,0.00,,,0.00,WUHU21623XXSP,2013-11-17 22:14:00,
2013-11-17 17:15:00,59.9,58.2,29.27,SSE,157,6.0,10.7,94,0.00,,,0.00,WUHU21623XXSP,2013-11-17 22:15:00,
2013-11-17 17:33:00,59.4,57.3,29.31,SW,225,19.5,19.5,93,0.00,,,0.00,WUHU21623XXSP,2013-11-17 22:33:00,
2013-11-17 17:38:00,57.9,55.7,29.31,SSW,202,12.1,19.5,91,0.00,,,0.00,WUHU21623XXSP,2013-11-17 22:38:00,
2013-11-17 17:47:00,57.2,54.6,29.30,SW,225,4.5,12.1,91,0.00,,,0.00,WUHU21623XXSP,2013-11-17 22:47:00,
2013-11-17 17:52:00,56.3,53.7,29.29,SSW,202,7.4,7.4,91,0.00,,,0.00,WUHU21623XXSP,2013-11-17 22:52:00,
2013-11-17 18:00:00,56.1,53.5,29.29,SSW,202,7.6,7.6,91,0.00,,,0.00,WUHU21623XXSP,2013-11-17 23:00:00,
2013-11-17 18:05:00,55.6,53.3,29.29,SW,225,7.8,8.9,92,0.00,,,0.00,WUHU21623XXSP,2013-11-17 23:05:00,
2013-11-17 18:10:00,55.2,52.9,29.28,SW,225,6.7,7.8,92,0.00,,,0.00,WUHU21623XXSP,2013-11-17 23:10:00,
2013-11-17 18:14:00,55.2,52.9,29.26,SSW,202,2.9,7.8,92,0.00,,,0.00,WUHU21623XXSP,2013-11-17 23:14:00,
2013-11-17 18:50:00,54.3,52.0,29.23,South,180,0.0,0.0,92,0.00,,,0.00,WUHU21623XXSP,2013-11-17 23:50:00,
2013-11-17 19:00:00,54.0,51.7,29.22,SSW,202,0.0,0.0,92,0.00,,,0.00,WUHU21623XXSP,2013-11-18 00:00:00,
2013-11-17 19:04:00,54.0,51.9,29.22,SSW,202,0.0,0.0,93,0.00,,,0.00,WUHU21623XXSP,2013-11-18 00:04:00,
2013-11-17 19:05:00,54.0,51.9,29.22,SSW,202,0.0,0.0,93,0.00,,,0.00,WUHU21623XXSP,2013-11-18 00:05:00,
2013-11-17 19:50:00,54.9,52.6,29.21,SSE,158,7.4,7.4,92,0.00,,,0.00,WUHU21623XXSP,2013-11-18 00:50:00,
2013-11-17 20:00:00,55.2,52.9,29.21,SSW,202,4.7,4.7,92,0.00,,,0.00,WUHU21623XXSP,2013-11-18 01:00:00,
2013-11-17 20:05:00,55.2,52.9,29.21,SSW,202,7.4,7.4,92,0.00,,,0.00,WUHU21623XXSP,2013-11-18 01:05:00,
2013-11-17 20:10:00,55.2,52.0,29.23,SSW,202,5.4,7.4,89,0.00,,,0.00,WUHU21623XXSP,2013-11-18 01:10:00,
2013-11-17 20:14:00,54.7,51.2,29.25,SW,225,17.4,17.4,88,0.00,,,0.00,WUHU21623XXSP,2013-11-18 01:14:00,
2013-11-17 20:42:00,51.6,45.7,29.27,SW,225,20.6,20.6,80,0.00,,,0.00,WUHU21623XXSP,2013-11-18 01:42:00,
2013-11-17 20:46:00,50.9,44.6,29.28,SSW,202,4.5,20.6,79,0.00,,,0.00,WUHU21623XXSP,2013-11-18 01:46:00,
2013-11-17 20:47:00,50.9,44.6,29.28,SSW,202,4.5,20.6,79,0.00,,,0.00,WUHU21623XXSP,2013-11-18 01:47:00,
2013-11-17 20:50:00,50.7,44.5,29.28,South,180,7.4,20.6,79,0.00,,,0.00,WUHU21623XXSP,2013-11-18 01:50:00,
2013-11-17 21:00:00,49.6,43.0,29.28,SSW,202,6.0,6.0,78,0.00,,,0.00,WUHU21623XXSP,2013-11-18 02:00:00,
2013-11-17 21:05:00,49.3,42.7,29.29,SSW,202,6.0,6.0,78,0.00,,,0.00,WUHU21623XXSP,2013-11-18 02:05:00,
2013-11-17 21:10:00,48.9,42.6,29.29,SSW,202,4.5,6.0,79,0.00,,,0.00,WUHU21623XXSP,2013-11-18 02:10:00,
2013-11-17 21:14:00,48.6,42.3,29.29,SW,225,7.4,8.1,79,0.00,,,0.00,WUHU21623XXSP,2013-11-18 02:14:00,
2013-11-17 21:28:00,47.8,41.6,29.31,SW,225,14.1,14.1,79,0.00,,,0.00,WUHU21623XXSP,2013-11-18 02:28:00,
2013-11-17 21:33:00,47.3,41.1,29.32,SW,225,13.4,14.1,79,0.00,,,0.00,WUHU21623XXSP,2013-11-18 02:33:00,
2013-11-17 21:38:00,46.9,40.4,29.32,SSW,202,8.5,14.1,78,0.00,,,0.00,WUHU21623XXSP,2013-11-18 02:38:00,
2013-11-17 21:50:00,46.4,40.3,29.34,SSE,158,16.8,16.8,79,0.00,,,0.00,WUHU21623XXSP,2013-11-18 02:50:00,
2013-11-17 22:50:00,44.1,39.3,29.39,SW,225,6.7,6.7,83,0.00,,,0.00,WUHU21623XXSP,2013-11-18 03:50:00,
2013-11-17 23:55:00,45.0,40.5,29.44,SW,225,4.9,4.9,84,0.00,,,0.00,WUHU21623XXSP,2013-11-18 04:55:00,